Total_Precipitation_Accumulation
0.61 0.70 0.61 1.10 1.13 1.17 1.06 0.97 1.59 1.31 0.65 0.55 0.48 0.88 0.95 0.67 0.65 0.55 0.73 0.57 0.56 0.62 0.60 0.93 1.31 1.56 1.89 1.77 1.67 1.91 2.14 1.81 1.52 1.54 1.20 1.09 1.15 1.14 1.05 0.94 1.14 1.75 1.84 1.89
1.52 0.90 0.43 0.94 1.10 0.92 0.63 0.73 0.80 0.57 0.61 0.47 0.37 0.52 0.92 0.82 0.77 0.53 0.59 0.89 0.74 0.65 0.62 0.74 0.94 1.33 1.46 1.35 1.46 1.45 1.45 1.48 1.54 1.17 1.17 1.19 1.07 1.07 0.78 0.73 0.75 0.93 1.17 1.31
1.12 0.56 0.49 0.94 0.87 0.51 0.32 0.27 0.36 0.42 0.44 0.31 0.36 0.48 0.66 0.77 0.81 0.80 0.96 1.11 1.17 1.42 1.28 1.10 1.11 1.22 1.51 1.63 1.49 1.76 1.58 1.33 0.99 1.06 1.14 1.22 1.22 1.29 1.36 1.30 1.12 1.02 0.99 0.99
1.20 0.73 1.42 1.01 0.40 0.32 0.33 0.33 0.28 0.31 0.31 0.36 0.54 0.67 0.72 0.91 1.56 1.68 1.47 1.41 1.34 1.23 1.07 1.05 1.02 0.98 1.40 1.95 1.99 1.77 1.51 1.46 1.09 0.96 1.13 1.32 1.35 1.33 1.58 1.61 1.43 1.38 1.36 1.13
1.32 0.86 0.62 0.27 0.16 0.25 0.34 0.33 0.36 0.56 0.73 0.71 0.68 0.93 1.25 1.45 1.94 1.83 1.25 0.88 0.87 1.01 1.05 0.81 1.02 0.99 1.24 1.26 1.46 1.66 1.60 1.56 1.55 1.19 1.17 1.35 1.57 1.56 1.40 1.41 1.52 1.53 1.49 1.49
1.48 1.37 0.69 0.22 0.15 0.08 0.15 0.47 0.43 0.78 1.24 1.15 1.21 1.37 1.20 1.05 1.60 1.39 0.85 0.50 0.38 0.36 0.47 0.79 0.84 0.75 0.84 0.81 0.76 1.17 1.83 1.72 1.84 1.90 1.84 1.95 1.86 1.74 1.85 1.83 1.77 1.72 1.66 1.55
1.60 1.98 0.70 0.16 0.19 0.24 0.81 1.05 0.72 0.69 0.86 1.26 1.53 1.69 1.42 1.19 1.24 0.98 0.78 0.32 0.11 0.06 0.04 0.08 0.32 0.53 0.47 0.48 0.67 0.73 1.07 1.69 1.73 1.92 1.80 1.69 1.83 1.92 2.05 2.33 2.48 2.41 2.27 1.99
1.32 1.79 1.04 0.36 0.54 0.97 1.05 0.79 0.56 0.45 0.29 0.38 0.60 0.66 0.68 0.89 0.88 0.61 0.37 0.09 0.01 0.00 0.01 0.02 0.04 0.07 0.20 0.31 0.36 0.44 0.54 0.72 1.16 1.27 1.19 1.31 1.33 1.41 1.52 1.51 1.65 1.82 1.91 2.06
0.90 0.77 0.69 0.62 0.89 0.76 0.74 0.80 0.46 0.31 0.25 0.41 0.41 0.47 0.65 0.53 0.25 0.10 0.05 0.03 0.01 0.01 0.02 0.04 0.04 0.03 0.04 0.08 0.10 0.13 0.20 0.29 0.56 0.95 1.04 0.90 1.10 1.18 1.05 1.03 0.98 1.08 1.11 1.16
1.19 0.96 1.02 1.07 0.62 0.41 0.54 0.55 0.38 0.26 0.27 0.30 0.32 0.29 0.26 0.18 0.14 0.11 0.08 0.03 0.03 0.02 0.02 0.03 0.06 0.20 0.13 0.06 0.04 0.05 0.08 0.11 0.16 0.43 0.89 0.77 0.76 0.80 0.83 0.86 0.89 0.95 1.00 1.04
1.96 1.44 1.13 0.98 0.96 0.77 0.48 0.21 0.23 0.38 0.35 0.26 0.14 0.12 0.14 0.14 0.27 0.30 0.24 0.12 0.02 0.02 0.03 0.03 0.07 0.13 0.42 0.29 0.08 0.07 0.10 0.15 0.18 0.15 0.31 0.63 0.69 0.79 0.74 0.91 1.01 1.05 1.25 1.30
2.05 1.39 1.36 1.06 0.53 0.41 0.39 0.36 0.24 0.12 0.11 0.07 0.04 0.03 0.07 0.13 0.28 0.28 0.26 0.16 0.06 0.02 0.02 0.03 0.03 0.06 0.09 0.40 0.28 0.16 0.20 0.20 0.37 0.34 0.34 0.48 0.69 0.96 1.13 0.88 0.75 0.74 0.84 0.98
0.99 1.16 1.08 0.83 0.49 0.32 0.28 0.14 0.05 0.08 0.16 0.30 0.33 0.11 0.11 0.14 0.24 0.30 0.12 0.09 0.06 0.10 0.07 0.06 0.08 0.13 0.16 0.25 0.48 0.41 0.34 0.37 0.38 0.49 0.47 0.52 0.68 0.78 1.13 1.36 1.25 1.25 1.28 1.32
0.58 0.82 0.61 0.30 0.23 0.12 0.04 0.02 0.03 0.03 0.04 0.10 0.26 0.32 0.21 0.17 0.22 0.25 0.20 0.08 0.06 0.05 0.08 0.10 0.17 0.34 0.43 0.55 0.72 1.01 1.07 1.18 1.16 1.26 1.28 1.19 1.15 1.22 1.39 1.41 1.52 1.77 1.68 1.38
0.38 0.35 0.33 0.18 0.06 0.03 0.02 0.04 0.07 0.10 0.16 0.20 0.16 0.11 0.13 0.16 0.12 0.17 0.21 0.25 0.15 0.14 0.17 0.23 0.29 0.42 0.49 0.51 0.64 0.84 1.01 1.07 1.09 1.19 1.31 1.36 1.24 1.16 1.26 1.30 1.17 1.07 1.04 1.03
0.05 0.09 0.12 0.10 0.08 0.06 0.06 0.10 0.17 0.33 0.29 0.19 0.12 0.10 0.08 0.10 0.13 0.15 0.19 0.44 0.47 0.37 0.35 0.42 0.48 0.53 0.44 0.34 0.37 0.57 0.87 1.04 0.92 0.96 1.13 1.18 1.15 1.02 1.04 1.05 1.03 1.00 0.90 0.89
0.08 0.12 0.15 0.13 0.16 0.19 0.27 0.35 0.40 0.38 0.26 0.18 0.21 0.19 0.17 0.16 0.18 0.23 0.30 0.34 0.51 0.52 0.49 0.57 0.77 0.78 0.78 0.82 0.86 1.05 1.13 1.23 1.13 0.97 0.99 1.02 0.97 0.91 0.83 0.78 0.76 0.80 0.80 0.78
0.13 0.22 0.24 0.27 0.44 0.52 0.43 0.32 0.26 0.21 0.23 0.25 0.24 0.26 0.35 0.32 0.39 0.43 0.47 0.40 0.45 0.60 0.76 0.98 1.19 1.20 1.18 1.16 1.05 1.06 1.03 1.01 0.99 0.94 0.81 0.80 0.78 0.76 0.79 0.78 0.72 0.69 0.69 0.65
0.16 0.30 0.38 0.43 0.42 0.35 0.29 0.30 0.33 0.35 0.41 0.43 0.46 0.52 0.55 0.62 0.63 0.76 0.81 0.80 1.01 1.08 1.42 1.24 1.17 1.14 1.08 1.05 0.87 0.81 0.81 0.77 0.74 0.80 0.73 0.65 0.63 0.62 0.64 0.62 0.55 0.51 0.54 0.63
0.26 0.25 0.26 0.23 0.21 0.28 0.31 0.35 0.33 0.39 0.52 0.54 0.65 0.82 0.96 1.19 1.18 1.21 1.17 1.21 1.35 1.28 1.10 0.89 0.71 0.69 0.76 0.74 0.64 0.59 0.67 0.69 0.64 0.61 0.58 0.50 0.45 0.42 0.41 0.46 0.49 0.56 0.60 0.59
0.55 0.52 0.49 0.47 0.53 0.59 0.66 0.77 0.72 0.90 1.15 1.09 0.94 1.02 1.05 1.23 1.22 1.19 1.04 1.07 1.27 0.90 0.62 0.48 0.38 0.38 0.38 0.45 0.49 0.52 0.59 0.62 0.60 0.59 0.57 0.55 0.52 0.49 0.52 0.54 0.53 0.54 0.59 0.57
0.69 0.66 0.74 0.75 0.69 0.89 1.08 0.99 0.80 0.81 0.82 0.83 0.82 0.83 0.75 0.85 0.74 0.64 0.65 0.70 0.79 0.63 0.52 0.37 0.26 0.22 0.20 0.25 0.31 0.40 0.44 0.50 0.57 0.62 0.69 0.75 0.76 0.69 0.59 0.50 0.47 0.48 0.50 0.52
0.67 0.62 0.62 0.63 0.57 0.64 0.79 0.79 0.69 0.59 0.61 0.65 0.67 0.67 0.56 0.56 0.49 0.38 0.40 0.37 0.26 0.24 0.27 0.31 0.27 0.21 0.23 0.25 0.29 0.36 0.43 0.51 0.57 0.61 0.62 0.64 0.69 0.67 0.62 0.55 0.51 0.49 0.46 0.45
0.62 0.59 0.61 0.61 0.45 0.31 0.42 0.60 0.47 0.47 0.44 0.46 0.43 0.37 0.26 0.23 0.28 0.21 0.18 0.16 0.13 0.11 0.10 0.12 0.16 0.17 0.24 0.31 0.34 0.40 0.45 0.49 0.48 0.53 0.54 0.55 0.59 0.60 0.60 0.54 0.53 0.49 0.46 0.42
0.54 0.53 0.55 0.50 0.40 0.47 0.43 0.40 0.28 0.27 0.19 0.18 0.17 0.14 0.12 0.12 0.23 0.18 0.11 0.10 0.10 0.13 0.16 0.13 0.14 0.18 0.33 0.37 0.38 0.38 0.39 0.41 0.42 0.46 0.46 0.48 0.48 0.51 0.52 0.51 0.50 0.50 0.47 0.42
0.45 0.45 0.47 0.42 0.41 0.36 0.31 0.22 0.21 0.20 0.14 0.15 0.19 0.18 0.16 0.15 0.16 0.15 0.15 0.16 0.15 0.15 0.23 0.26 0.28 0.29 0.34 0.38 0.40 0.38 0.37 0.32 0.33 0.36 0.40 0.41 0.42 0.43 0.45 0.46 0.47 0.49 0.49 0.47
0.39 0.36 0.27 0.21 0.21 0.21 0.23 0.23 0.21 0.21 0.22 0.24 0.29 0.25 0.23 0.24 0.22 0.21 0.24 0.27 0.29 0.30 0.34 0.36 0.33 0.32 0.32 0.34 0.33 0.31 0.33 0.32 0.32 0.31 0.31 0.32 0.34 0.36 0.39 0.42 0.42 0.43 0.44 0.44